Temp
-11 -11 -11 -11 -11 -12 -12 -12 -12 -12 -12 -12 -12 -12 -12 -12 -13 -13 -12 -13 -13 -13 -13 -13 -14 -14 -14 -14 -14 -14 -14 -14 -14 -14 -13 -13 -13 -13 -12 -12 -13 -12 -12
-11 -11 -11 -11 -12 -12 -12 -12 -11 -12 -12 -12 -12 -12 -12 -13 -13 -13 -12 -12 -12 -13 -13 -13 -14 -14 -14 -14 -14 -13 -14 -14 -14 -14 -14 -13 -13 -13 -12 -12 -13 -13 -13
-11 -11 -11 -12 -12 -12 -12 -12 -12 -12 -12 -12 -12 -12 -12 -13 -12 -12 -12 -12 -12 -12 -13 -13 -13 -13 -13 -13 -14 -14 -14 -14 -14 -14 -14 -14 -13 -13 -13 -13 -12 -12 -12
-11 -11 -12 -12 -11 -11 -11 -12 -12 -12 -12 -12 -12 -12 -13 -13 -12 -12 -12 -12 -12 -12 -12 -12 -13 -13 -13 -13 -13 -13 -13 -13 -13 -14 -13 -14 -13 -13 -13 -13 -12 -12 -12
-11 -11 -11 -11 -11 -12 -12 -12 -12 -12 -12 -12 -12 -12 -13 -13 -12 -12 -12 -12 -12 -12 -11 -12 -12 -12 -12 -13 -13 -13 -13 -13 -13 -13 -13 -13 -13 -13 -13 -13 -12 -12 -12
-11 -11 -11 -11 -11 -12 -12 -12 -12 -12 -12 -12 -12 -12 -12 -13 -13 -12 -12 -12 -12 -12 -12 -12 -12 -12 -12 -12 -12 -13 -13 -13 -12 -12 -13 -13 -12 -12 -12 -12 -12 -12 -12
-11 -11 -11 -11 -12 -12 -12 -12 -12 -12 -12 -12 -12 -12 -12 -13 -13 -12 -12 -12 -12 -12 -12 -12 -12 -12 -12 -12 -12 -11 -12 -12 -12 -12 -12 -12 -12 -12 -12 -12 -12 -13 -13
-11 -11 -11 -12 -12 -12 -12 -12 -12 -12 -12 -12 -12 -12 -12 -13 -13 -12 -12 -12 -12 -12 -12 -12 -12 -12 -12 -12 -12 -11 -11 -11 -12 -12 -12 -12 -12 -12 -12 -13 -13 -13 -13
-11 -11 -11 -11 -12 -12 -12 -12 -12 -13 -12 -12 -12 -12 -12 -12 -13 -12 -12 -12 -11 -11 -11 -12 -11 -11 -11 -11 -11 -11 -11 -11 -11 -11 -11 -12 -12 -13 -13 -13 -13 -13 -13
-11 -11 -11 -11 -11 -12 -12 -12 -12 -12 -12 -12 -12 -12 -12 -12 -12 -12 -12 -11 -11 -11 -11 -11 -11 -11 -11 -11 -12 -12 -11 -11 -11 -10 -11 -11 -12 -12 -12 -13 -13 -13 -13
-12 -12 -11 -12 -12 -12 -12 -12 -12 -12 -12 -12 -12 -12 -12 -12 -12 -12 -12 -12 -11 -11 -11 -11 -12 -11 -11 -11 -11 -11 -11 -11 -11 -12 -12 -13 -13 -13 -13 -13 -13 -13 -13
-12 -12 -12 -12 -12 -12 -12 -12 -12 -12 -12 -12 -12 -12 -12 -12 -12 -12 -12 -12 -11 -11 -10 -11 -12 -12 -12 -11 -11 -11 -11 -11 -11 -12 -12 -12 -13 -13 -13 -13 -13 -13 -13
-12 -12 -12 -12 -12 -12 -13 -12 -12 -12 -12 -13 -13 -12 -12 -12 -12 -11 -11 -11 -11 -11 -10 -11 -11 -11 -11 -12 -11 -11 -11 -12 -12 -12 -12 -13 -13 -13 -13 -13 -13 -13 -13
-12 -12 -12 -12 -12 -12 -13 -13 -13 -12 -12 -13 -12 -12 -12 -12 -12 -11 -11 -12 -12 -12 -11 -11 -11 -12 -12 -12 -12 -12 -12 -12 -12 -13 -13 -13 -13 -13 -13 -13 -13 -13 -13
-12 -12 -12 -12 -12 -12 -13 -13 -13 -13 -12 -12 -12 -12 -12 -12 -12 -12 -12 -12 -12 -12 -12 -12 -12 -12 -12 -12 -12 -12 -12 -12 -13 -13 -12 -13 -13 -13 -13 -13 -13 -13 -14
-12 -12 -12 -12 -12 -12 -13 -13 -13 -13 -13 -13 -12 -12 -13 -13 -13 -13 -13 -13 -12 -12 -12 -12 -12 -12 -12 -12 -12 -12 -12 -12 -12 -13 -13 -13 -13 -13 -13 -13 -13 -14 -14
-12 -12 -12 -12 -12 -12 -12 -12 -12 -12 -12 -12 -13 -13 -13 -13 -13 -13 -13 -13 -13 -13 -12 -12 -12 -12 -12 -12 -12 -12 -12 -12 -12 -13 -13 -13 -13 -13 -13 -14 -14 -14 -14
-12 -12 -12 -12 -12 -12 -12 -13 -12 -13 -12 -12 -12 -12 -12 -13 -12 -13 -13 -13 -13 -13 -13 -13 -13 -13 -13 -13 -13 -13 -13 -13 -13 -13 -13 -13 -13 -14 -14 -14 -14 -14 -14
-12 -12 -12 -12 -12 -12 -12 -12 -13 -13 -13 -13 -13 -13 -13 -13 -13 -13 -13 -13 -13 -13 -13 -13 -13 -13 -13 -13 -13 -13 -13 -13 -13 -13 -13 -13 -13 -13 -13 -14 -14 -14 -14
-12 -12 -12 -12 -12 -12 -12 -12 -12 -13 -13 -13 -13 -13 -13 -13 -13 -13 -13 -13 -13 -13 -13 -13 -13 -13 -13 -13 -13 -13 -13 -13 -13 -13 -13 -13 -13 -13 -13 -14 -14 -14 -14
-11 -12 -12 -12 -12 -12 -12 -12 -12 -12 -12 -13 -13 -13 -13 -13 -13 -13 -13 -13 -13 -13 -13 -13 -13 -13 -14 -13 -13 -13 -13 -13 -13 -14 -14 -14 -14 -14 -14 -14 -14 -14 -14
-12 -12 -11 -12 -12 -12 -12 -12 -12 -12 -12 -12 -12 -13 -13 -13 -13 -13 -13 -13 -13 -13 -13 -13 -13 -13 -13 -13 -14 -14 -14 -14 -13 -13 -14 -14 -14 -14 -14 -14 -14 -14 -14
-13 -12 -12 -11 -11 -12 -12 -12 -12 -12 -12 -12 -12 -12 -12 -13 -13 -13 -13 -13 -13 -13 -13 -13 -13 -13 -13 -13 -13 -13 -13 -14 -14 -14 -14 -14 -14 -14 -14 -14 -14 -14 -14
-13 -13 -13 -12 -12 -12 -11 -12 -12 -12 -12 -12 -12 -12 -12 -12 -13 -13 -13 -13 -13 -13 -13 -13 -13 -13 -13 -13 -13 -13 -14 -14 -14 -14 -14 -14 -14 -14 -14 -14 -14 -14 -14
-13 -13 -12 -12 -12 -12 -12 -12 -12 -11 -12 -12 -12 -13 -12 -12 -12 -13 -13 -13 -13 -13 -13 -13 -13 -13 -13 -13 -13 -13 -14 -14 -14 -14 -14 -14 -14 -14 -14 -14 -14 -14 -14
-13 -13 -13 -13 -13 -13 -13 -13 -12 -12 -11 -11 -12 -12 -12 -12 -13 -13 -13 -13 -13 -13 -13 -13 -13 -13 -13 -13 -13 -13 -13 -13 -13 -13 -13 -13 -13 -14 -14 -14 -14 -14 -14
Height
5719 5718 5718 5717 5714 5712 5710 5709 5708 5707 5706 5706 5707 5706 5704 5701 5699 5696 5693 5689 5687 5687 5686 5686 5686 5687 5688 5689 5691 5694 5696 5700 5704 5710 5714 5718 5722 5728 5726 5738 5743 5748 5754
5717 5716 5715 5713 5710 5709 5708 5707 5706 5705 5704 5705 5706 5705 5703 5701 5698 5696 5693 5691 5687 5686 5686 5686 5686 5686 5688 5689 5691 5694 5696 5699 5704 5708 5713 5718 5723 5728 5732 5738 5743 5748 5752
5714 5714 5712 5709 5709 5707 5705 5705 5704 5704 5704 5704 5705 5704 5703 5701 5699 5697 5694 5691 5689 5687 5685 5685 5685 5686 5688 5690 5691 5694 5697 5701 5704 5708 5713 5718 5723 5728 5732 5737 5740 5748 5751
5712 5710 5708 5706 5706 5704 5702 5702 5703 5703 5703 5704 5705 5704 5702 5701 5699 5696 5694 5693 5689 5688 5686 5686 5686 5687 5688 5691 5693 5696 5699 5702 5706 5710 5715 5719 5724 5729 5733 5736 5742 5747 5749
5709 5708 5706 5704 5703 5701 5700 5701 5701 5702 5702 5703 5704 5704 5703 5702 5699 5697 5695 5694 5692 5691 5689 5688 5688 5689 5690 5692 5694 5697 5701 5705 5708 5713 5718 5722 5727 5732 5735 5739 5743 5747 5751
5708 5706 5703 5702 5701 5699 5699 5699 5700 5701 5701 5702 5704 5705 5704 5702 5700 5699 5699 5697 5696 5695 5693 5691 5691 5691 5690 5691 5693 5696 5701 5707 5711 5716 5721 5725 5729 5733 5735 5739 5744 5749 5754
5706 5704 5703 5701 5700 5699 5698 5698 5699 5700 5700 5702 5703 5704 5705 5703 5702 5701 5701 5701 5700 5699 5697 5696 5696 5694 5694 5693 5694 5697 5702 5706 5710 5715 5721 5726 5731 5735 5737 5741 5746 5752 5756
5705 5704 5702 5701 5700 5698 5697 5697 5698 5699 5700 5701 5703 5705 5706 5705 5704 5703 5704 5704 5704 5704 5703 5701 5701 5701 5700 5698 5700 5702 5704 5709 5713 5716 5721 5729 5732 5737 5740 5746 5751 5755 5759
5705 5704 5703 5701 5699 5698 5697 5698 5698 5698 5699 5701 5702 5705 5707 5708 5706 5706 5707 5707 5708 5708 5708 5708 5708 5708 5708 5707 5708 5712 5715 5716 5719 5723 5726 5731 5736 5740 5746 5750 5754 5757 5760
5705 5705 5703 5701 5700 5699 5698 5698 5697 5697 5698 5701 5703 5706 5708 5709 5709 5709 5709 5710 5711 5712 5711 5712 5714 5714 5715 5716 5716 5722 5725 5726 5727 5728 5731 5734 5739 5745 5751 5753 5757 5760 5762
5706 5706 5705 5704 5701 5699 5698 5698 5698 5698 5697 5700 5703 5706 5709 5711 5712 5712 5713 5713 5713 5714 5715 5715 5717 5720 5721 5722 5724 5726 5729 5731 5732 5734 5738 5741 5746 5750 5753 5756 5758 5761 5764
5707 5707 5706 5705 5704 5700 5699 5698 5697 5697 5698 5700 5703 5706 5710 5712 5714 5715 5716 5716 5717 5718 5719 5719 5720 5723 5725 5728 5730 5732 5733 5735 5738 5741 5744 5747 5750 5754 5756 5758 5761 5763 5765
5707 5707 5707 5708 5707 5703 5702 5701 5699 5699 5700 5702 5705 5708 5711 5714 5715 5717 5717 5718 5720 5721 5723 5723 5725 5727 5730 5733 5735 5737 5739 5741 5744 5746 5748 5751 5754 5756 5758 5760 5761 5762 5764
5708 5709 5709 5709 5708 5707 5706 5704 5701 5701 5702 5704 5707 5710 5713 5716 5718 5719 5720 5722 5723 5726 5727 5729 5731 5733 5736 5738 5741 5743 5744 5744 5746 5749 5752 5754 5755 5756 5758 5760 5762 5763 5764
5709 5710 5710 5711 5711 5711 5710 5709 5706 5706 5706 5708 5710 5714 5716 5718 5720 5723 5724 5725 5727 5730 5732 5734 5736 5738 5741 5743 5744 5746 5748 5749 5751 5752 5754 5755 5757 5758 5760 5761 5763 5764 5765
5711 5711 5712 5713 5714 5714 5714 5715 5713 5712 5712 5713 5715 5717 5719 5723 5723 5726 5728 5730 5732 5735 5737 5739 5740 5742 5744 5744 5746 5748 5750 5751 5752 5753 5756 5757 5759 5761 5761 5762 5764 5763 5763
5711 5712 5713 5714 5715 5717 5718 5719 5719 5719 5720 5720 5722 5723 5725 5727 5729 5731 5733 5735 5737 5740 5741 5743 5745 5746 5747 5749 5750 5752 5752 5754 5755 5756 5758 5760 5761 5761 5762 5761 5760 5760 5760
5711 5713 5714 5715 5717 5718 5720 5722 5724 5724 5725 5725 5726 5728 5730 5731 5733 5735 5737 5739 5741 5743 5744 5745 5747 5748 5749 5751 5753 5754 5755 5756 5757 5758 5759 5760 5760 5761 5760 5760 5760 5759 5758
5711 5712 5714 5716 5718 5720 5721 5723 5725 5727 5728 5729 5730 5732 5733 5735 5736 5738 5739 5741 5743 5744 5746 5747 5748 5749 5751 5752 5754 5754 5755 5756 5757 5758 5758 5759 5758 5758 5758 5758 5756 5755 5754
5709 5712 5714 5716 5718 5720 5722 5724 5726 5727 5729 5731 5732 5734 5735 5737 5738 5739 5741 5742 5744 5745 5747 5747 5748 5749 5750 5750 5752 5753 5755 5755 5756 5756 5756 5755 5756 5756 5756 5755 5755 5755 5754
5707 5710 5712 5714 5716 5718 5720 5722 5725 5728 5729 5731 5732 5734 5735 5737 5739 5740 5741 5743 5744 5745 5746 5746 5747 5748 5749 5751 5751 5751 5752 5753 5754 5754 5754 5755 5755 5754 5752 5752 5752 5751 5750
5705 5707 5709 5711 5713 5715 5717 5719 5722 5724 5726 5728 5730 5732 5734 5736 5738 5739 5740 5741 5742 5743 5744 5745 5746 5747 5748 5749 5749 5749 5750 5750 5750 5750 5750 5750 5749 5749 5748 5748 5747 5745 5743
5701 5704 5707 5709 5710 5711 5713 5715 5718 5720 5722 5724 5725 5727 5730 5732 5733 5735 5736 5738 5739 5739 5740 5742 5742 5743 5743 5744 5744 5745 5746 5746 5746 5745 5744 5741 5740 5739 5739 5738 5738 5738 5737
5696 5699 5702 5704 5707 5709 5710 5711 5712 5715 5717 5719 5720 5721 5723 5725 5727 5728 5730 5731 5733 5735 5735 5736 5737 5737 5737 5738 5738 5738 5738 5737 5737 5737 5737 5736 5735 5733 5732 5731 5729 5729 5727
5691 5693 5695 5698 5701 5703 5705 5707 5708 5709 5711 5713 5715 5716 5716 5718 5720 5721 5722 5723 5725 5726 5728 5729 5730 5730 5729 5729 5729 5730 5730 5730 5730 5729 5728 5727 5727 5726 5725 5724 5722 5721 5719
5681 5685 5688 5690 5693 5696 5698 5701 5703 5704 5706 5707 5709 5710 5712 5712 5713 5714 5716 5717 5718 5718 5719 5720 5721 5722 5722 5722 5722 5722 5721 5721 5720 5720 5718 5717 5717 5717 5715 5715 5714 5713 5711
Wind_Speed
13 13 15 16 19 16 13 11 9 8 7 6 3 3 5 7 11 7 10 14 8 6 1 4 5 5 7 10 12 10 12 17 18 19 20 22 22 21 25 21 22 20 20
13 13 15 16 14 11 9 8 8 8 5 3 2 2 3 5 10 3 9 12 8 4 2 4 6 8 10 11 10 10 13 18 19 18 20 21 24 26 24 22 20 19 21
13 14 15 14 8 8 6 7 8 7 4 3 2 3 1 4 7 6 8 10 4 3 6 5 5 5 9 12 12 15 14 17 17 17 18 20 23 25 22 25 23 25 18
14 13 11 8 7 9 7 6 6 6 3 6 3 1 2 5 7 7 6 7 4 6 9 8 9 8 6 11 13 13 13 18 19 18 17 18 20 22 24 27 28 14 19
9 7 7 9 10 10 7 5 4 4 3 7 3 2 2 6 7 8 7 6 10 11 13 14 12 8 7 9 12 14 14 17 18 17 14 17 22 16 20 28 22 13 18
9 10 10 9 6 5 5 5 3 1 6 8 6 5 4 8 10 8 10 15 15 16 13 15 17 10 10 12 19 20 20 20 19 17 19 18 18 17 15 24 19 18 21
9 8 6 5 4 2 3 3 2 3 7 10 8 6 5 9 9 8 10 10 13 14 14 16 15 20 17 16 17 21 23 25 25 24 19 18 21 16 16 27 27 25 24
7 6 7 6 7 5 6 5 4 4 7 10 9 7 6 5 9 8 12 11 15 17 16 18 20 19 19 22 20 21 24 23 23 27 28 27 21 26 31 29 22 18 17
6 5 7 7 5 6 6 4 2 3 8 10 10 10 9 7 10 11 14 16 17 16 14 14 18 23 25 32 33 31 31 32 33 33 34 34 32 28 28 22 16 19 19
4 5 7 9 7 5 5 6 6 5 9 11 11 12 12 9 13 12 13 14 12 14 13 12 15 20 25 30 36 31 29 28 27 29 31 32 29 28 19 19 25 23 20
4 4 6 8 11 9 4 6 7 5 7 14 12 13 15 12 11 12 12 11 11 12 10 12 20 18 24 30 31 27 24 24 27 29 26 25 24 23 25 24 20 16 14
4 4 7 8 10 12 9 7 6 7 11 13 15 15 17 13 11 10 10 11 14 14 11 13 21 21 22 23 23 23 27 30 29 31 30 28 26 23 21 19 16 15 12
5 5 6 6 10 15 14 11 9 10 12 12 15 17 17 13 10 9 9 13 14 15 15 16 19 20 20 22 21 21 25 28 26 25 25 23 21 20 18 14 13 12 8
6 5 5 6 8 13 15 15 15 13 14 14 16 18 17 14 13 12 13 17 17 18 19 19 19 20 20 23 21 21 22 22 23 21 20 18 17 16 15 13 10 7 4
4 6 6 8 8 11 14 18 20 16 17 17 18 18 18 17 17 17 19 22 21 21 22 22 24 22 20 19 19 18 18 17 17 16 14 14 15 15 13 10 7 3 2
3 5 7 8 10 13 15 17 23 24 17 19 18 19 19 18 21 22 21 23 23 21 20 19 16 15 16 15 14 12 11 12 14 14 13 13 11 9 8 5 1 3 3
6 4 7 9 10 12 16 17 19 21 21 23 22 23 24 22 22 21 22 18 18 18 17 14 13 12 11 11 14 14 16 15 13 13 13 10 8 5 3 2 3 4 7
6 7 6 8 10 12 14 15 14 15 15 17 18 18 18 18 18 19 18 17 16 14 12 11 11 12 12 15 15 14 12 10 9 7 7 6 7 6 5 5 4 5 8
10 8 9 9 9 11 13 14 12 11 12 12 13 15 16 16 15 15 13 12 11 10 9 9 9 10 12 13 9 6 4 3 3 2 3 3 3 4 6 5 4 7 9
16 12 10 10 10 11 12 13 13 12 9 8 7 8 9 9 9 9 8 7 7 7 6 6 6 6 6 10 10 9 7 2 2 2 3 5 5 7 9 7 7 9 12
16 16 15 13 12 12 12 13 14 14 14 14 12 10 7 5 4 4 3 3 3 2 2 1 3 7 7 7 9 11 11 10 10 8 9 9 10 11 12 11 12 14 16
13 15 15 17 16 14 14 14 15 16 17 16 15 14 13 11 9 8 8 8 7 5 4 4 5 6 8 12 13 14 15 14 15 16 17 18 17 16 16 17 16 18 19
17 14 15 16 17 18 17 17 16 17 18 18 19 18 17 18 17 16 15 14 13 11 9 8 8 9 11 12 14 16 17 18 19 18 19 22 24 24 22 21 21 21 21
25 23 20 20 19 19 19 19 19 19 20 21 21 20 19 20 21 20 20 19 18 17 16 15 15 16 17 17 18 19 21 23 24 24 24 24 25 26 24 23 22 23 24
28 27 26 26 25 24 23 23 22 21 20 20 20 23 23 22 21 22 23 24 24 23 22 21 22 22 23 22 22 22 22 24 25 27 28 28 28 30 30 28 28 28 27
33 33 31 29 27 28 27 27 26 25 23 23 23 23 24 25 25 25 25 26 26 26 27 27 27 26 25 25 24 25 25 26 27 29 31 33 33 32 34 33 31 31 32
Wind_Direction
297 296 296 292 300 304 310 309 311 317 296 299 304 276 303 344 351 38 359 357 319 320 101 92 111 128 157 172 170 184 187 192 187 192 185 179 182 177 188 195 194 195 186
298 298 293 303 310 314 301 302 310 324 301 277 248 244 309 2 17 15 354 360 350 320 344 183 189 165 179 172 188 181 183 184 185 180 183 178 180 178 178 185 182 176 177
296 297 297 303 303 317 314 315 307 327 290 207 204 261 258 17 2 8 2 10 27 45 75 141 154 96 148 154 159 153 170 168 169 167 175 172 175 178 181 187 181 175 195
304 307 307 314 306 302 300 297 304 316 249 188 172 318 64 27 25 33 33 14 39 69 103 106 119 117 118 155 156 162 163 157 146 152 173 172 174 175 179 191 165 173 174
324 318 319 309 297 298 291 292 270 287 195 187 164 120 84 36 50 56 77 59 82 105 106 109 103 116 130 153 175 170 157 147 143 142 164 166 157 170 183 193 202 182 168
308 321 323 317 327 297 286 273 218 198 167 171 153 136 72 34 80 84 96 79 97 98 97 99 95 88 135 162 189 186 164 152 156 162 184 181 157 140 174 174 177 169 165
320 341 348 3 16 40 132 136 164 147 161 169 162 120 90 69 82 82 112 98 102 94 100 99 108 107 102 111 136 160 167 163 163 172 168 162 158 168 141 148 143 150 157
337 23 41 53 52 63 87 96 127 149 156 173 170 132 118 93 103 88 138 109 117 98 93 84 113 111 97 110 110 125 140 150 155 149 147 154 151 140 140 144 140 139 151
356 40 43 62 61 58 78 77 139 168 163 164 165 153 136 119 102 106 121 127 125 116 109 100 98 107 108 110 110 112 118 126 133 133 132 133 133 135 136 142 145 136 128
8 35 51 60 63 81 76 63 94 136 166 155 157 159 145 132 117 108 117 114 129 135 127 120 123 122 128 120 118 118 119 125 128 132 138 142 144 143 140 138 134 129 125
12 19 40 55 62 53 76 101 80 102 149 169 158 151 154 141 127 122 117 116 114 140 135 132 129 132 137 138 132 133 127 124 127 128 130 134 137 135 129 127 123 127 132
23 31 59 59 61 57 86 102 82 102 129 144 158 151 156 146 129 130 115 122 113 117 125 125 134 140 143 142 146 138 133 126 124 125 127 130 131 131 129 128 131 129 133
47 35 61 74 75 75 81 89 97 107 127 144 153 147 151 143 138 125 123 132 123 127 125 117 130 129 135 143 144 140 136 127 127 127 125 127 132 135 140 141 139 144 136
71 58 70 85 87 78 76 70 71 97 127 130 138 137 139 134 129 127 129 126 121 126 123 122 123 127 129 128 132 133 135 134 130 126 124 128 136 139 142 146 151 132 105
91 72 78 91 92 93 88 80 74 94 109 118 130 133 135 127 125 125 127 130 130 130 125 129 129 128 128 130 133 135 133 130 126 127 135 146 145 146 148 150 134 106 48
135 96 101 99 96 106 108 97 88 86 99 124 118 129 129 126 123 125 123 129 130 134 133 135 135 137 138 138 137 134 131 128 131 136 141 142 150 149 147 139 108 275 280
159 144 120 119 112 118 126 112 98 96 100 104 108 113 117 118 119 126 130 124 124 128 130 131 136 138 141 141 134 131 130 134 141 145 145 150 147 155 176 222 255 279 288
163 170 157 146 136 135 137 132 119 106 102 107 112 115 118 121 123 126 126 123 122 123 125 132 139 142 140 142 136 133 132 134 139 143 150 172 188 197 220 229 258 290 301
181 177 175 171 168 160 156 157 151 134 119 113 115 117 118 121 123 125 127 125 124 127 131 128 135 158 169 165 159 157 146 115 112 144 213 212 226 239 252 243 279 304 307
187 187 187 186 186 187 183 178 178 179 173 160 149 142 142 139 136 134 134 134 136 138 146 165 174 168 168 195 187 187 181 194 285 293 305 294 280 277 274 286 288 292 299
202 200 197 195 194 197 199 204 204 205 202 202 202 207 214 199 175 169 177 186 192 191 200 226 198 211 212 201 202 215 237 261 268 268 272 271 272 274 276 278 286 293 299
210 209 204 205 206 204 205 213 220 218 219 225 227 231 235 239 240 235 229 232 241 247 244 258 278 271 242 235 242 252 261 268 277 285 293 293 294 295 291 288 286 289 295
226 230 226 217 212 207 208 210 214 224 234 234 232 234 238 240 242 245 248 248 248 248 248 251 251 255 263 267 265 261 259 262 266 277 285 289 293 296 295 295 292 294 299
236 234 230 230 230 231 222 218 214 217 224 232 240 243 237 240 244 245 245 246 249 252 252 245 241 245 250 253 255 255 258 265 274 281 283 283 282 284 288 290 288 292 298
231 240 239 232 230 231 236 235 228 223 225 230 232 237 248 246 242 244 246 247 246 246 245 243 246 249 251 252 251 252 255 262 269 274 276 278 280 285 289 290 289 289 290
229 234 239 244 243 242 240 238 241 241 235 230 231 236 239 243 250 249 246 247 247 246 245 246 248 250 252 254 257 261 263 265 267 270 273 275 277 280 284 287 288 288 287